Whidbey Island, WA
on Tuesday, January 29, 2013

Tuesday
Previous Day Next Day
Daily Summary
 ActualAverageRecord
Temperature
Mean Temperature °F °F  
Max Temperature 46°F 46°F 54°F (1998)
Min Temperature 43°F 35°F 28°F (2002)
Degree Days
Heating Degree Days 20    
Moisture
Dew Point 41°F   
Average Humidity 88    
Maximum Humidity 93    
Minimum Humidity 81    
Precipitation
Precipitation 0.50 in in in ()
Wind
Wind Speed 12 mph   
Max Wind Speed 23 mph   
Max Gust Speed 33 mph   
Visibility 7 miles   
Events Rain   
Averages and records for this station are not official NWS values.
Key: T is trace of precipitation, MM is missing value
Source: NWS Daily Summary
Seasonal Weather Averages
Time(PST)TemperatureDew PointHumidity Pressure Visibility Wind DirectionWind SpeedGust SpeedPrecipitationEvents Conditions
12:56 AM 45.0°F 41.0°F 86% 30.08 in 10.0 miles West 21.9 mph 28.8 mph N/A   Overcast
1:56 AM 46.0°F 41.0°F 83% 30.10 in 10.0 miles West 23.0 mph 33.4 mph N/A   Overcast
2:56 AM 46.0°F 41.0°F 83% 30.12 in 10.0 miles West 18.4 mph 26.5 mph N/A   Overcast
3:56 AM 46.0°F 42.1°F 86% 30.13 in 10.0 miles West 21.9 mph 26.5 mph N/A   Overcast
4:56 AM 46.0°F 42.1°F 86% 30.16 in 10.0 miles West 17.3 mph - N/A   Overcast
5:56 AM 46.0°F 42.1°F 86% 30.18 in 10.0 miles West 13.8 mph - N/A   Overcast
6:29 AM 46.4°F 42.8°F 87% 30.17 in 8.0 miles NW 6.9 mph - N/A   Overcast
6:56 AM 45.0°F 41.0°F 86% 30.19 in 8.0 miles North 3.5 mph - N/A   Overcast
7:19 AM 44.6°F 39.2°F 81% 30.20 in 10.0 miles Calm Calm - N/A   Overcast
7:56 AM 44.1°F 39.9°F 85% 30.22 in 9.0 miles WNW 5.8 mph - N/A   Overcast
8:56 AM 44.1°F 39.9°F 85% 30.25 in 10.0 miles Calm Calm - N/A   Overcast
9:15 AM 44.6°F 41.0°F 87% 30.25 in 10.0 miles Calm Calm - N/A   Overcast
9:56 AM 45.0°F 41.0°F 86% 30.27 in 9.0 miles Calm Calm - N/A   Overcast
10:56 AM 45.0°F 41.0°F 86% 30.30 in 10.0 miles ESE 3.5 mph - N/A   Overcast
11:44 AM 44.6°F 41.0°F 87% 30.29 in 10.0 miles East 5.8 mph - N/A   Overcast
11:56 AM 44.1°F 41.0°F 89% 30.30 in 10.0 miles East 4.6 mph - N/A   Overcast
12:41 PM 44.6°F 41.0°F 87% 30.30 in 9.0 miles East 4.6 mph - N/A   Overcast
12:56 PM 44.1°F 41.0°F 89% 30.30 in 9.0 miles ESE 5.8 mph - N/A   Overcast
1:23 PM 44.6°F 41.0°F 87% 30.29 in 6.0 miles ESE 3.5 mph - 0.00 in Rain Light Rain
1:56 PM 46.0°F 42.1°F 86% 30.31 in 7.0 miles SSW 5.8 mph - 0.00 in Rain Light Rain
2:56 PM 46.9°F 43.0°F 86% 30.31 in 9.0 miles WSW 19.6 mph 25.3 mph 0.01 in Rain Light Rain
3:21 PM 46.4°F 42.8°F 87% 30.31 in 9.0 miles SSW 10.4 mph - 0.00 in Rain Light Rain
3:56 PM 46.9°F 43.0°F 86% 30.32 in 9.0 miles South 9.2 mph 19.6 mph 0.00 in Rain Light Rain
4:56 PM 45.0°F 42.1°F 90% 30.33 in 2.0 miles South 10.4 mph - 0.01 in Rain Light Rain
5:56 PM 45.0°F 42.1°F 90% 30.33 in 2.0 miles SE 5.8 mph - 0.06 in Rain Rain
6:56 PM 44.1°F 42.1°F 93% 30.34 in 2.0 miles SSE 9.2 mph - 0.14 in Rain Rain
7:56 PM 43.0°F 41.0°F 93% 30.34 in 2.0 miles ESE 6.9 mph - 0.12 in Rain Rain
8:56 PM 43.0°F 41.0°F 93% 30.33 in 2.0 miles SSE 6.9 mph - 0.06 in Rain Light Rain
9:56 PM 43.0°F 41.0°F 93% 30.32 in 2.0 miles ESE 6.9 mph - 0.02 in Rain Light Rain
10:56 PM 43.0°F 41.0°F 93% 30.32 in 2.0 miles ESE 8.1 mph - 0.05 in Rain Light Rain
11:56 PM 43.0°F 41.0°F 93% 30.33 in 2.0 miles SE 4.6 mph - 0.03 in Rain Light Rain
Moon Phase
Jan. 29 Feb. 03 Feb. 10 Feb. 17 Feb. 25
Sunrise:07:42 AM (PST) Moon Rise:08:26 PM (PST)1/29
Sunset:05:05 PM (PST) Moon Set:08:25 AM (PST)1/29

Copyright © 2014 The Weather Underground, Inc.